Weather in Tsmur

Russia / Republic of Dagestan     41°41′04″N   48°03′22″E
temp.,
°C
wind,
m/s
gust,
m/s
humid.,
%
clouds,
%
prec.,
mm/h
press.,
hPa
HPBL,
m
24 july, sat
sat2400:00+19w118196 0.1 100911
03:00+18nne1190100 0.4 101054
06:00+18se1191100 0.6 101199
09:00+17se1191100 2.1 1012132
12:00+18ssw018776 0.8 1012198
15:00+20ese3276100 0.9 1012788
18:00+19e1184100 0.4 101344
21:00+18w118568 0.4 101540
25 july, sun
sun2500:00+18wsw228237 0.1 101531
03:00+17wnw228018 0.1 101513
06:00+19wnw117236 0.0 101784
09:00+23ene324827 0.0 10161182
12:00+26e434237 0.0 10161642
15:00+25ene434969 0.0 10161438
18:00+22ene225725 0.0 1017655
21:00+17w22740 0.0 101911
26 july, mon
mon2600:00+17w22750 0.0 101812
03:00+17w22750 0.0 101911
06:00+20w11640 0.0 101979
09:00+25e32400 0.0 10181026
12:00+28e43320 0.0 10171560
15:00+28ene43320 0.0 10151413
18:00+25ene22370 0.0 1016538
21:00+19w22500 0.0 101813
27 july, tue
tue2700:00+19w32510 0.0 101819
03:00+19w33514 0.0 101721
06:00+22w22455 0.0 101657
09:00+26ene33295 0.0 10151312
12:00+28ne43311 0.2 10141643
15:00+27ne64363 0.3 10131778
18:00+22n565354 0.0 1016754
21:00+18w117951 0.8 101754
28 july, wed
wed2800:00+17w1182100 0.5 101786
03:00+15nw2488100 1.7 1017198
06:00+16wnw2265100 0.1 101946
09:00+17n2457100 0.1 1019897
12:00+19n334594 0.0 10181526
15:00+17n4455100 0.0 10181112
18:00+17n1259100 0.0 1019449
21:00+14w226458 0.0 101926